SCP
-0 -0 -0 -0 -0 -0 -0 0 0 0 1 1 0 1 1 1 1 0 0 0 0 0 0 0 0 0 0 0 0 0 0 0 0 0 0 0 0 0 0 0 0 0 0
0 -0 -0 -0 -0 -0 -0 -0 0 0 1 0 0 0 0 1 0 0 0 0 0 0 0 0 0 0 0 0 0 0 0 0 0 0 0 0 0 0 0 0 0 0 0
0 0 -0 -0 -0 -0 -0 -0 0 0 0 0 0 0 0 0 0 0 0 0 0 0 0 0 0 0 0 0 0 0 0 0 1 1 0 0 0 0 0 0 0 0 0
0 0 0 0 -0 -0 -0 -0 0 0 0 0 0 0 0 0 0 0 0 0 0 0 0 0 0 0 0 0 0 0 0 1 1 1 0 0 0 0 0 0 0 0 0
0 0 0 0 0 0 0 0 0 0 0 0 0 0 0 0 0 0 0 1 1 0 0 0 0 0 0 0 0 1 1 1 1 1 0 0 0 0 0 0 0 0 0
1 1 1 1 0 0 0 0 0 0 0 0 0 0 0 0 0 0 1 1 1 1 1 1 1 1 1 1 1 1 1 1 1 1 0 0 0 0 0 0 0 0 0
1 1 1 1 1 1 1 1 1 1 0 0 0 0 0 0 0 0 1 1 1 1 1 1 1 1 1 1 1 1 1 1 1 1 0 0 0 0 0 1 1 0 0
0 1 1 1 2 2 2 1 1 1 1 1 1 1 1 1 1 1 1 1 1 1 1 1 1 1 1 1 1 1 1 1 1 1 0 0 0 0 1 1 1 0 0
0 0 0 1 1 2 2 2 2 2 1 1 1 1 1 1 1 1 1 1 1 1 1 1 1 1 1 1 1 1 1 1 1 1 0 0 0 1 1 1 1 1 1
0 0 0 0 0 1 2 2 2 2 2 2 1 1 1 1 1 1 1 1 1 1 1 1 1 1 1 1 1 1 1 1 1 1 1 0 1 1 1 1 1 1 1
0 0 0 0 0 0 1 1 2 2 2 2 1 1 1 1 1 1 1 1 1 1 1 1 1 1 1 1 1 1 1 1 1 1 1 1 1 1 1 1 1 1 1
0 0 0 0 0 0 0 0 0 1 1 1 1 1 1 1 1 1 1 1 1 1 1 1 1 1 1 1 1 1 1 1 1 1 1 1 1 1 1 1 1 1 1
0 0 0 0 0 0 0 0 0 0 0 0 0 0 0 0 0 0 0 0 0 1 1 1 1 1 1 1 1 0 0 0 0 0 0 1 1 1 1 1 1 1 1
0 0 0 0 0 0 0 0 0 0 0 0 0 0 0 0 0 0 0 0 0 0 0 0 0 1 1 1 0 0 0 0 0 0 0 0 1 1 1 1 1 1 1
0 0 0 0 0 0 0 0 0 0 0 0 0 0 0 0 0 0 0 0 0 0 0 0 0 0 0 0 0 0 0 0 0 0 0 0 0 1 1 1 1 1 1
0 0 0 0 0 0 0 0 0 0 0 0 0 0 0 0 0 0 0 0 0 0 0 0 0 0 0 0 0 0 0 0 0 0 0 0 0 0 1 1 1 1 1
0 0 0 0 0 0 0 0 0 0 0 0 0 0 0 0 0 0 0 0 0 0 0 0 0 0 0 0 0 0 0 0 0 0 0 0 0 0 1 1 1 1 1
0 0 0 0 0 0 0 0 0 0 0 -0 -0 0 0 0 0 0 0 0 0 0 0 0 0 0 0 0 0 0 0 0 0 0 0 0 0 0 1 1 1 1 1
0 0 0 0 0 0 -0 -0 -0 -0 -0 -0 0 0 0 0 0 0 0 0 0 0 0 0 0 0 0 0 0 0 0 0 0 0 0 0 0 0 1 1 1 1 2
-0 -0 -0 -0 -0 -0 0 0 0 0 -0 -0 0 0 0 0 0 0 0 0 0 0 0 0 0 0 0 0 0 0 0 0 0 0 0 0 0 0 0 1 1 1 1
-0 -0 -0 0 0 0 0 0 0 0 0 0 0 0 0 0 0 0 0 0 0 0 0 0 0 0 0 0 0 0 0 0 0 0 0 0 0 0 0 0 0 1 1
-0 -0 -0 0 0 0 0 0 0 0 0 0 0 0 0 0 0 0 0 0 0 0 0 0 0 0 0 0 0 0 0 0 0 0 0 0 0 0 0 0 0 0 0
-0 -0 -0 0 0 0 0 0 0 0 0 0 0 0 0 0 0 0 0 0 0 0 0 0 0 0 0 0 0 0 0 0 0 0 0 0 0 0 0 0 0 0 0
0 0 0 0 0 0 0 0 0 0 0 0 0 0 0 0 0 0 0 0 0 0 0 0 0 0 0 0 0 0 0 0 0 0 0 0 0 0 0 0 0 0 0
0 0 0 0 0 0 0 0 0 0 0 0 0 0 0 0 0 0 0 0 0 0 0 0 0 0 0 0 0 0 0 0 0 0 0 0 0 0 0 0 0 0 0
0 0 0 0 0 0 0 0 0 0 0 0 0 0 0 0 0 0 0 0 0 0 0 0 0 0 0 0 0 0 0 0 0 0 0 0 0 0 0 0 0 0 0
Wind_Speed
4 5 10 10 9 7 5 3 1 2 2 4 3 2 1 1 1 1 2 2 1 1 1 2 3 3 3 2 3 3 2 3 3 4 5 6 8 9 8 8 7 5 8
3 4 8 8 7 6 5 3 1 1 2 3 2 1 3 3 4 4 3 2 3 3 4 4 4 4 3 3 3 3 3 3 3 4 4 5 7 8 8 9 8 5 8
2 1 3 5 4 4 3 3 2 3 2 2 2 3 4 5 5 5 5 5 6 7 7 6 6 5 4 4 4 4 4 4 3 3 4 2 3 8 8 9 8 8 8
5 4 2 2 3 3 4 4 4 4 4 2 3 5 5 6 6 7 7 6 8 9 9 8 7 6 5 5 5 5 5 5 4 3 2 2 1 6 8 8 8 7 7
7 5 4 3 3 4 4 5 5 5 5 5 5 6 7 6 7 8 9 9 9 8 9 9 8 7 6 6 6 6 6 6 5 3 2 1 1 6 9 9 8 8 7
8 5 4 4 4 4 5 6 6 6 6 7 7 7 8 8 8 8 9 10 9 7 6 6 6 7 7 6 5 6 7 6 5 3 2 2 3 7 9 9 9 9 8
13 12 10 11 7 5 5 5 6 6 7 8 9 7 8 11 10 9 9 10 9 6 4 4 5 5 5 5 5 5 6 5 4 3 3 3 5 12 12 11 11 10 10
19 18 18 23 19 13 8 7 7 7 7 8 8 7 10 10 9 10 10 9 7 5 3 4 5 6 5 5 5 5 5 5 4 4 4 3 7 12 14 14 12 11 10
21 20 18 18 19 20 16 12 10 8 8 8 7 8 10 10 9 10 10 9 5 4 4 5 6 7 7 6 5 5 5 5 2 3 3 3 7 10 13 14 14 12 11
21 21 20 19 19 17 14 17 16 12 11 9 8 8 9 8 7 8 7 7 6 6 6 7 8 8 7 6 5 5 5 4 2 3 3 4 9 11 13 15 15 14 13
24 21 20 20 19 18 16 20 20 19 18 15 9 9 9 5 5 5 7 8 9 9 9 9 9 9 8 6 6 5 3 2 3 3 3 7 12 13 13 16 16 16 14
21 20 19 20 20 18 15 13 12 13 14 14 12 10 7 6 5 6 8 10 11 11 11 12 11 9 7 3 4 4 2 3 3 3 4 11 14 15 13 15 17 17 15
11 17 17 17 17 17 13 11 9 9 10 12 15 15 11 7 5 4 3 5 6 7 5 7 7 4 4 4 4 3 4 3 3 3 5 11 14 16 16 16 17 17 16
15 18 16 16 16 15 12 10 10 9 8 9 11 14 11 8 8 6 3 3 3 3 4 3 3 4 5 5 5 5 5 4 3 3 5 12 15 16 17 17 17 18 18
18 19 19 15 18 15 12 10 11 11 10 9 8 11 12 9 10 10 7 5 4 3 3 3 3 4 5 5 5 5 6 6 5 5 4 11 14 16 17 19 18 18 18
19 19 17 16 17 16 13 10 8 8 9 9 10 12 13 10 10 10 10 8 6 4 3 3 4 4 4 4 5 5 6 6 5 6 6 8 13 15 18 20 20 20 20
15 15 17 16 17 17 14 12 9 7 7 8 8 10 12 12 12 11 10 10 8 7 6 4 5 4 4 4 6 6 5 6 6 7 7 6 7 11 16 20 21 20 20
14 17 17 17 17 16 14 11 9 8 8 7 7 8 12 13 13 11 10 9 10 9 6 5 5 4 4 4 5 5 5 5 7 7 6 6 6 6 10 17 19 20 20
14 15 17 17 17 16 14 11 10 9 8 7 7 8 11 12 13 11 9 9 11 9 7 7 6 4 5 5 6 6 5 6 6 6 6 7 7 7 6 10 15 16 17
13 14 16 18 18 16 12 10 8 9 8 8 8 10 14 12 13 11 9 11 12 10 8 8 8 7 5 6 6 6 5 5 4 5 6 5 6 8 7 6 6 8 14
16 16 17 18 18 15 13 13 13 12 11 9 9 13 15 15 15 12 10 12 11 10 11 11 9 9 6 4 4 4 4 5 5 5 5 4 6 6 6 6 5 4 5
15 13 14 15 15 14 14 12 11 12 10 11 11 13 14 16 15 13 13 12 12 12 13 11 10 7 5 4 5 4 4 4 3 4 4 5 5 4 5 6 6 6 5
17 17 16 16 16 15 17 13 13 10 10 11 13 13 15 16 15 14 13 12 12 11 11 13 11 10 9 6 6 5 4 6 3 2 2 2 3 4 4 4 6 7 7
16 16 16 17 17 16 17 16 18 14 14 15 12 12 15 14 14 13 13 12 12 11 11 12 12 10 10 9 5 5 4 4 4 2 1 1 1 2 3 3 5 7 7
14 15 16 17 16 16 17 18 17 15 14 13 14 15 14 12 12 13 13 11 12 11 12 13 14 13 9 9 7 4 4 3 3 4 3 2 1 1 1 3 3 4 5
11 13 16 16 15 15 17 17 17 18 19 19 18 17 15 13 13 16 17 13 13 12 13 13 13 15 13 11 8 6 5 5 5 4 4 3 2 1 1 1 3 3 3
Wind_Direction
234 218 204 187 188 186 192 186 133 55 141 137 109 64 23 11 16 140 156 155 148 149 213 221 187 185 184 171 158 153 143 118 110 104 119 135 137 134 136 143 132 117 116
194 190 201 189 194 198 205 214 246 354 49 111 89 343 314 309 292 273 263 266 275 270 254 244 228 216 207 198 185 180 186 165 134 108 108 129 140 137 129 139 141 141 132
87 134 206 196 208 219 231 243 266 290 335 34 8 316 305 303 312 315 300 274 269 269 264 254 244 240 229 209 200 198 201 189 169 132 111 110 143 145 134 136 143 141 141
51 34 7 245 246 252 258 260 264 267 281 292 299 293 300 305 306 311 321 312 284 269 263 258 251 249 241 217 206 205 209 199 182 161 142 169 197 166 156 151 148 145 144
45 31 5 295 273 274 275 275 271 264 263 265 263 270 278 286 296 302 306 306 304 283 266 259 255 254 252 235 221 212 213 207 190 173 191 214 236 194 174 167 158 151 153
29 18 356 313 289 283 279 273 270 268 264 269 270 272 276 277 273 282 295 297 295 292 288 283 270 262 263 252 235 227 225 217 188 180 210 231 233 222 190 172 162 161 161
22 13 8 1 343 322 302 288 277 270 267 271 274 271 280 282 274 268 278 286 271 269 291 307 302 288 285 277 265 256 246 233 179 193 217 239 227 218 192 175 172 171 168
27 22 15 7 1 351 334 313 299 282 270 271 282 280 280 279 283 281 275 283 266 250 268 296 301 298 296 295 293 284 278 262 206 202 220 241 245 221 195 183 179 179 176
27 23 17 10 4 357 346 340 331 321 306 291 289 289 293 287 293 302 287 283 279 282 284 286 286 290 293 296 302 303 296 291 240 221 229 235 255 242 209 193 186 185 183
27 23 17 12 9 4 358 358 353 342 331 314 300 298 303 288 286 297 297 275 268 270 273 277 275 270 268 275 289 309 315 316 266 240 240 244 253 255 225 204 193 191 189
23 20 16 14 13 10 10 9 7 4 357 347 330 332 333 322 307 296 284 270 261 256 254 259 265 265 259 257 260 269 299 292 290 266 255 258 260 263 236 213 201 196 194
17 17 18 16 13 12 12 10 7 8 2 1 358 351 340 326 307 293 292 290 281 270 260 255 251 250 252 246 253 255 243 257 268 264 264 271 272 270 254 227 209 202 199
12 18 18 17 15 15 10 9 9 6 4 3 5 1 349 338 326 315 305 308 305 292 278 271 265 247 233 223 231 233 232 237 240 251 258 267 273 272 265 243 219 207 203
15 13 9 14 13 12 10 9 9 6 4 3 1 5 2 352 343 333 314 299 295 293 289 278 273 270 257 241 233 237 238 233 233 239 249 256 261 264 263 251 230 213 207
13 7 3 5 8 3 4 5 9 5 3 358 360 5 5 1 352 341 328 312 293 280 276 282 275 271 265 255 243 235 240 240 242 242 248 249 251 253 256 254 239 224 216
14 9 2 4 5 358 356 355 0 360 357 359 4 4 3 360 355 347 337 326 312 296 274 259 258 263 266 261 258 247 243 242 240 241 240 247 247 248 249 250 245 230 222
8 5 4 3 2 358 352 348 352 351 354 357 358 359 0 359 354 349 340 334 329 316 296 276 262 250 251 251 254 252 247 244 241 241 238 234 242 244 244 245 245 234 224
5 4 2 360 357 354 350 346 343 346 349 350 351 354 356 355 352 346 339 334 330 324 308 288 272 264 254 245 246 248 241 239 239 238 236 231 230 237 241 240 240 236 229
6 3 0 358 357 352 348 347 341 339 342 343 347 351 349 349 348 342 331 330 329 324 317 304 287 259 257 255 252 249 236 233 236 234 232 231 226 227 230 237 235 232 228
2 3 1 359 357 353 350 347 344 343 344 342 342 344 342 341 342 338 330 330 329 324 321 316 300 278 253 251 258 255 241 233 232 231 234 234 227 223 219 221 228 231 228
359 2 1 358 354 356 357 353 349 345 342 339 338 338 337 339 339 335 334 330 329 323 315 310 305 290 269 244 247 262 262 243 237 236 231 230 230 224 211 207 210 216 229
352 352 356 356 352 356 356 347 341 333 333 336 337 336 339 339 336 335 335 330 326 322 318 316 315 299 279 231 218 234 267 287 257 239 232 225 227 220 217 209 202 210 214
352 349 349 350 349 354 356 348 344 340 341 344 340 336 337 334 332 330 330 328 322 320 317 315 310 304 292 269 218 202 204 225 244 272 244 232 224 209 216 219 218 219 216
348 346 347 348 348 355 357 350 348 345 343 339 334 327 325 325 324 325 326 322 318 316 313 312 313 306 294 279 250 223 222 193 179 215 254 250 241 201 209 217 226 228 221
344 352 350 346 349 353 355 350 345 342 338 333 332 329 329 325 322 323 320 317 316 313 310 309 311 306 293 277 261 225 215 234 205 159 196 231 228 204 211 210 209 219 218
348 354 348 344 345 352 353 348 345 343 339 336 336 333 331 328 328 329 326 321 317 312 307 306 301 299 291 278 263 234 202 187 188 170 167 188 205 238 277 249 191 187 186